User: anonymous   Login
Location: Unspecified
(0.0000°N, 0.0000°E)
Time: 04:53:03
(UTC+02:00)
Language:

Atlas Centaur 2 - Orbit

View from above orbital plane
View from above orbital plane
View from above satellite
View from above satellite

Ground track
Ground track

The orbit data is extracted from the following two-line orbital elements,

1 00694U 63047A   16239.80031597  .00000288  00000-0  25485-4 0  9999
2 00694  30.3588 344.1660 0588871 357.9778   1.8480 14.01840110641377
Epoch (UTC): 26 August 2016 19:12:27
Eccentricity: 0.0588871
inclination: 30.3588°
perigee height: 459 km
apogee height: 1315 km
right ascension of ascending node: 344.1660°
argument of perigee: 357.9778°
revolutions per day: 14.01840110
mean anomaly at epoch: 1.8480°
orbit number at epoch: 64137

The dashed part of the orbit path shows where the satellite is in the earth's shadow,  

DLR